Probability
0 0 0 0 1 0 0 0 0 0 0 0 0 0 0 1 3 4 5 5 5 6 6 6 4 3 3 4 8 13 14 13 11 9 8 7 6 5 4 3 4 6 6 6
0 0 0 1 1 1 0 0 0 0 0 0 1 1 0 2 5 7 8 8 6 6 6 6 4 3 3 5 8 12 13 12 9 8 8 8 6 5 4 4 5 6 7 7
0 0 0 1 2 1 0 0 0 0 0 2 3 3 2 4 8 11 11 10 8 7 8 8 6 4 5 7 9 12 13 11 9 8 9 9 7 6 6 6 7 8 9 9
0 0 0 0 1 1 0 0 0 0 2 4 5 5 5 6 9 11 11 10 10 9 10 11 8 7 8 11 13 14 14 12 10 9 10 10 8 7 8 8 9 9 10 11
0 0 0 0 0 0 0 0 0 2 5 7 6 6 6 6 7 10 11 11 10 10 11 12 11 10 12 15 16 16 15 13 11 10 10 10 9 8 9 10 10 10 10 11
0 0 0 0 0 0 0 0 2 5 7 7 5 4 5 6 7 9 10 10 10 9 10 11 11 12 13 15 16 17 16 14 11 9 10 9 9 8 9 10 10 10 10 11
0 0 0 0 0 0 0 1 3 7 8 6 4 3 5 7 8 7 7 8 10 10 10 10 11 13 14 15 16 18 18 15 11 10 9 9 8 8 9 9 9 9 10 11
0 0 0 0 0 0 0 1 4 8 7 5 5 5 5 7 8 8 8 9 11 12 12 12 13 14 16 16 16 18 18 15 12 11 10 9 8 8 9 8 8 8 9 10
0 0 0 0 0 1 1 2 4 6 7 7 7 6 6 7 9 11 11 12 13 14 15 16 16 16 16 15 16 17 16 14 12 11 9 9 9 9 9 9 9 9 9 9
0 0 0 1 2 3 5 5 5 5 6 6 5 5 7 9 12 13 13 13 14 16 18 19 17 15 14 16 17 17 15 13 12 10 8 8 9 10 9 10 10 11 11 11
0 0 1 2 4 6 9 9 7 5 5 5 4 4 7 11 13 13 12 13 14 17 19 18 15 13 15 18 20 20 16 13 11 9 8 8 8 9 8 8 9 10 10 11
0 0 1 3 5 7 9 9 7 6 6 5 4 4 5 8 10 11 12 12 14 18 20 19 15 13 16 20 23 24 21 17 14 12 11 10 11 10 8 7 7 7 7 9
1 1 2 3 5 7 9 8 7 6 6 4 3 3 4 5 8 10 12 14 16 20 23 22 18 17 19 22 25 26 24 22 21 19 17 16 16 15 13 11 9 7 6 5
3 3 4 4 6 8 9 8 7 6 4 2 2 3 5 7 8 9 11 15 19 23 24 23 22 22 23 25 27 27 25 25 25 25 24 22 20 19 18 16 14 11 7 3
5 5 5 5 6 7 6 6 6 5 3 2 3 6 8 8 8 9 11 16 21 24 24 23 23 24 26 27 27 27 26 25 24 24 24 24 22 20 18 16 15 13 8 4
4 5 6 5 4 3 2 2 3 4 5 4 5 7 8 8 9 11 13 16 19 22 22 21 22 24 25 26 26 24 23 21 19 20 21 22 21 19 16 14 12 11 8 6
2 4 5 4 2 1 1 2 4 5 6 5 5 6 7 8 10 12 13 12 14 18 19 19 19 21 22 22 22 19 16 15 15 17 19 19 18 17 15 13 11 9 7 5
2 3 4 3 1 2 3 3 5 6 6 5 4 5 6 7 9 10 10 10 12 14 15 14 15 16 17 17 15 13 10 9 11 13 15 15 14 14 13 13 12 10 7 4
1 2 3 2 1 1 3 4 4 6 6 5 5 6 6 7 8 9 10 10 11 11 10 9 10 11 12 11 10 7 6 6 7 8 9 9 9 9 10 11 12 12 8 5
0 1 2 2 1 1 2 3 4 5 6 5 6 6 6 6 6 8 9 10 9 8 7 6 7 9 9 9 7 6 5 4 4 4 5 6 7 7 7 8 9 9 8 6
0 0 1 1 1 1 1 2 3 4 5 5 6 5 4 3 4 5 7 8 7 5 4 5 6 8 9 8 7 6 5 5 5 5 6 7 7 8 7 6 6 6 5 5
0 0 0 1 2 1 0 1 1 2 4 4 5 4 2 2 4 5 6 7 6 4 3 4 5 7 8 7 7 7 8 8 7 8 8 8 7 7 6 5 4 4 4 4
0 0 1 2 3 2 1 1 1 2 3 3 3 2 2 4 5 6 6 7 6 4 4 4 4 4 5 7 8 9 10 9 8 9 9 7 6 5 5 4 3 3 3 3
0 1 2 3 3 3 3 2 2 3 3 3 3 3 3 5 6 6 6 6 6 4 3 3 2 1 3 7 9 10 10 9 8 7 6 4 3 2 2 2 2 3 3 3
1 1 3 3 3 3 3 3 3 3 4 4 5 4 4 5 6 6 6 6 4 3 2 2 1 0 3 7 8 9 9 8 7 5 3 2 2 1 0 0 1 1 2 2
2 3 3 3 3 3 3 3 3 4 5 6 6 5 4 5 6 6 6 5 3 2 1 1 1 1 3 6 7 7 7 7 6 5 4 3 3 3 2 1 0 0 1 1
3 3 3 3 3 3 3 3 3 4 5 6 6 6 6 6 6 6 6 5 3 2 1 1 2 2 4 6 6 5 6 6 6 6 5 5 5 5 4 3 1 0 0 0
Wind_Speed
3 3 2 2 3 4 4 7 8 7 7 8 6 6 5 4 3 3 3 4 5 5 5 5 4 5 5 5 5 5 5 5 6 5 4 4 4 4 3 3 3 3 3 2
1 2 1 1 2 4 3 3 3 2 6 5 3 2 2 3 5 5 4 5 5 5 5 6 6 5 5 4 4 4 5 5 4 4 4 4 4 4 4 3 3 3 3 3
1 2 3 2 3 4 3 2 3 4 6 3 2 2 3 3 4 5 5 5 6 6 6 6 6 6 5 5 4 4 4 4 4 4 4 4 4 4 4 4 3 3 2 2
1 2 4 6 2 1 3 0 1 2 3 2 3 3 1 1 3 3 3 4 4 4 4 4 4 4 4 4 4 5 4 4 3 3 3 3 3 4 4 3 3 3 3 3
3 2 4 5 1 1 2 1 1 1 2 2 2 3 4 2 1 2 3 3 3 4 4 3 4 4 5 4 4 4 4 4 4 4 4 3 3 3 3 2 2 2 2 2
4 3 6 6 4 2 3 2 3 1 1 2 3 2 3 4 3 1 1 1 2 2 3 3 3 4 5 4 4 5 5 4 4 4 4 4 4 3 2 2 3 2 2 2
3 3 6 5 5 1 4 5 2 0 0 1 1 3 4 3 2 1 0 0 1 3 3 3 3 5 5 5 5 5 4 4 4 3 3 4 3 3 2 2 2 2 2 1
4 3 6 4 2 2 4 2 1 0 1 1 1 2 3 2 2 2 2 2 2 2 2 2 3 5 5 5 5 3 3 4 4 4 3 3 3 3 2 3 2 2 2 1
6 6 4 3 2 3 2 1 1 1 1 1 1 2 3 3 2 2 2 2 1 1 1 2 3 5 6 5 4 4 4 4 4 4 3 3 4 4 3 3 2 2 2 2
1 4 4 4 3 2 1 1 1 1 0 1 1 1 2 3 2 2 2 1 1 1 1 2 3 4 5 4 5 5 5 4 3 4 3 2 3 3 3 3 3 3 3 3
3 4 4 4 3 3 3 2 2 2 1 0 1 1 2 2 2 2 1 1 0 1 3 4 3 3 4 4 5 5 4 4 4 4 4 3 3 3 4 4 5 5 4 4
6 6 4 5 5 3 2 3 2 2 3 3 0 1 1 2 3 2 2 1 1 2 3 3 3 3 3 4 5 6 5 4 4 3 3 3 3 1 1 2 4 6 6 5
6 4 4 5 5 4 3 3 3 2 2 2 2 1 1 3 3 3 2 2 2 3 3 3 3 3 3 3 5 6 6 5 4 4 3 3 3 3 2 2 1 3 5 5
5 3 4 5 5 4 3 3 2 2 2 2 2 1 1 2 3 3 3 3 3 2 2 2 2 3 3 3 4 5 5 5 4 4 4 4 4 4 3 3 2 1 2 3
6 5 6 4 4 4 3 2 1 2 2 2 1 1 2 2 3 4 4 3 1 1 1 1 1 2 2 2 4 4 4 4 4 3 3 4 4 3 3 3 3 2 1 1
3 3 4 4 5 4 3 2 3 4 3 2 3 3 3 3 4 3 3 2 1 2 2 2 2 3 2 3 3 3 3 5 4 3 3 3 3 3 3 3 3 2 3 2
3 4 4 5 6 5 5 5 5 5 4 4 4 4 3 3 3 3 3 2 1 2 2 2 3 2 2 3 3 3 3 3 4 3 3 3 3 3 3 3 3 3 3 3
7 8 7 7 6 5 5 4 4 5 5 5 4 3 3 3 4 4 3 2 2 2 2 2 2 1 1 2 2 2 3 2 3 3 2 2 3 3 3 3 3 3 2 2
5 6 6 6 6 5 5 5 5 5 5 4 4 4 4 4 4 3 2 1 1 3 3 2 2 1 1 1 2 2 3 3 2 2 2 2 2 2 2 3 3 3 2 2
4 4 4 4 4 4 5 5 4 4 4 4 4 3 3 3 3 2 2 2 3 3 3 2 1 1 2 2 2 2 3 3 3 3 3 3 2 2 2 3 3 2 2 2
3 3 3 3 3 4 4 4 4 4 4 4 4 4 4 3 2 2 2 2 3 2 1 2 2 2 2 1 1 2 3 3 3 3 3 3 3 3 3 3 2 2 2 2
2 2 3 3 3 3 3 3 3 3 3 2 3 3 2 2 2 1 2 2 3 2 1 1 2 2 2 1 1 2 2 2 2 2 2 3 3 3 3 3 3 3 3 2
3 3 3 3 3 3 2 2 3 3 3 3 3 3 3 3 2 2 2 2 1 2 1 2 2 2 2 1 2 2 2 2 2 2 2 3 3 3 3 3 3 3 3 2
3 3 2 2 1 1 1 3 2 1 1 1 2 2 2 1 1 1 1 1 2 2 1 1 1 0 1 1 1 2 2 2 2 2 2 2 2 2 2 3 3 3 3 3
3 3 2 0 0 1 2 1 0 1 1 1 0 0 1 1 1 0 0 0 0 1 1 1 2 2 2 2 2 2 2 2 2 2 2 2 2 2 2 3 3 3 3 2
2 2 1 1 1 1 1 1 1 1 1 1 1 1 1 1 2 1 1 1 2 2 1 2 2 2 2 2 2 2 2 2 2 2 2 2 2 2 3 3 4 3 3 2
2 1 1 0 0 0 0 1 1 1 1 1 1 1 2 2 2 2 2 2 2 2 2 2 2 2 2 2 3 3 3 3 3 3 3 3 3 3 3 4 3 3 2 2
Wind_Direction
236 245 204 213 209 182 181 180 180 216 220 242 241 240 239 221 198 180 181 174 179 185 186 183 184 188 189 193 191 185 182 194 205 203 196 193 193 197 199 201 212 205 202 221
333 332 1 299 252 202 211 185 202 204 249 254 269 259 245 202 176 182 189 186 184 182 177 180 185 187 183 185 182 171 181 198 198 189 190 193 197 193 191 199 204 196 203 211
254 307 34 287 248 203 205 212 174 205 246 291 304 273 231 217 187 189 197 192 186 186 185 187 187 178 181 184 168 169 186 193 187 184 190 197 197 190 197 203 199 196 208 207
140 87 213 240 258 170 161 149 262 252 278 261 242 257 272 189 178 197 208 206 199 189 185 185 177 171 170 159 164 175 183 187 184 182 188 187 188 200 204 200 193 198 212 217
124 164 269 292 299 158 153 262 341 303 322 337 347 28 4 360 177 215 216 207 199 189 180 165 164 163 149 152 160 169 184 192 189 184 184 186 196 201 193 182 195 199 206 214
126 151 222 244 288 291 124 266 324 357 334 4 56 65 289 316 314 279 247 203 171 151 135 140 162 147 147 166 172 188 198 199 191 186 186 190 193 188 172 170 188 192 209 219
153 199 255 268 300 28 151 240 289 356 346 60 115 226 264 301 308 284 126 108 136 132 137 161 158 148 162 175 194 203 190 177 175 180 186 182 171 166 157 165 174 192 204 232
153 187 248 305 25 146 215 251 162 167 192 165 258 315 326 330 321 359 30 41 80 123 148 154 153 155 173 194 203 178 163 164 170 174 180 174 161 164 162 166 178 203 198 239
186 210 247 289 248 250 219 200 233 211 259 193 1 345 338 334 338 4 29 32 51 133 144 151 169 172 184 202 180 162 163 174 174 167 171 169 169 173 172 177 187 208 217 238
263 272 281 295 290 301 279 240 256 229 224 134 27 324 333 334 332 347 355 13 27 95 152 185 193 198 198 186 171 164 172 185 176 165 167 174 185 183 184 193 197 206 220 238
256 274 311 307 301 309 332 353 0 350 338 260 126 320 323 321 309 303 310 327 330 211 211 218 212 208 196 174 165 169 178 188 186 179 180 185 196 198 197 206 200 202 215 220
227 231 222 256 281 297 315 317 317 339 342 335 317 307 328 311 297 293 300 304 275 253 236 228 214 217 205 176 167 170 182 190 190 186 186 186 187 214 272 235 221 218 221 219
231 244 240 259 282 286 274 280 292 288 279 308 318 324 321 301 302 304 301 295 272 261 257 239 216 223 218 186 175 179 187 191 188 187 187 192 194 197 232 304 286 236 236 238
234 243 268 267 265 273 261 260 283 294 288 269 280 312 313 303 291 292 287 279 274 279 290 250 221 228 220 190 183 188 187 189 187 191 193 197 200 204 205 212 232 266 257 241
261 239 232 252 271 276 264 252 275 283 292 304 295 285 289 293 281 272 271 274 284 314 303 281 249 257 232 189 187 190 186 188 193 195 199 201 199 200 209 216 222 232 242 268
268 261 233 239 258 267 254 231 235 255 255 268 282 281 281 280 274 279 292 311 319 292 283 274 267 263 236 198 186 188 196 196 192 191 196 200 201 202 207 206 215 226 229 229
232 250 244 247 253 253 244 236 232 241 245 244 250 261 270 280 284 293 299 299 270 260 263 262 265 262 226 204 191 191 193 192 190 194 200 204 200 204 210 206 211 222 232 222
229 234 236 233 235 242 250 244 239 238 240 245 248 253 257 251 250 258 272 287 303 306 297 279 268 248 221 205 193 182 178 183 189 199 199 206 208 200 202 206 209 213 222 208
243 240 243 245 241 236 241 242 245 249 251 246 240 239 241 246 243 245 253 269 289 295 292 290 293 262 234 222 188 171 170 172 175 190 193 193 204 206 201 201 205 207 204 195
256 254 245 248 253 247 248 252 246 248 247 235 231 232 240 250 243 234 242 263 259 255 265 281 301 281 248 217 186 179 178 178 180 186 189 193 200 204 202 201 200 197 193 191
265 269 264 250 255 255 251 248 238 239 240 223 214 221 231 246 239 213 218 268 284 273 267 290 288 271 250 222 204 193 185 185 186 188 189 188 185 192 196 196 192 186 188 191
294 289 282 264 255 265 260 242 233 233 234 225 223 217 214 235 244 258 263 255 273 294 304 276 266 257 242 210 191 196 186 184 190 185 180 175 178 186 190 187 184 183 181 175
297 286 282 267 244 247 263 250 232 216 215 217 217 213 210 225 231 230 282 298 287 298 296 271 269 260 231 178 170 179 179 179 178 176 177 176 177 180 180 179 175 166 160 161
308 305 288 272 238 210 263 274 258 227 208 215 215 203 186 194 280 287 265 285 301 300 291 270 256 285 128 135 148 158 160 163 163 166 169 164 164 167 165 157 150 146 148 153
306 304 301 309 212 236 241 245 129 100 81 58 61 103 154 185 201 241 76 108 8 3 34 47 61 66 83 107 124 129 131 139 147 149 148 144 150 155 155 151 147 143 143 145
301 302 296 259 235 236 233 166 122 102 98 79 48 43 58 67 82 92 90 83 71 55 53 56 57 61 78 97 104 111 119 125 124 123 130 133 135 138 139 136 133 132 134 135
340 352 11 10 318 263 135 134 126 115 112 113 86 54 72 77 78 79 77 71 63 62 63 64 64 65 72 84 91 91 91 92 96 102 109 112 112 117 118 115 114 112 113 116